Regional Weather Roundup
Issued by NWS Goodland, KS

Home | Current Version | Previous Version | Graphics & Text | Print | Product List | Glossary On
Versions: 1 2 3 4 5 6 7 8 9 10 11 12 13 14 15 16 17 18 19 20 21 22 23 24 25 26 27 28 29 30 31 32 33 34 35 36 37 38 39 40 41 42 43 44 45 46 47 48 49 50
000
ASUS43 KGLD 270608
RWRGLD

GOODLAND FORECAST AREA HOURLY WEATHER ROUNDUP
NATIONAL WEATHER SERVICE GOODLAND KS
1200 AM MDT WED AUG 27 2014

...OFFICIAL OBSERVATIONS...

CITY           SKY/WX    TMP DP  RH WIND       PRES   REMARKS
GOODLAND KS    LGT RAIN  64  63  96 NE3       30.18F
HILL CITY KS   CLOUDY    75  66  73 E3        30.10S
IMPERIAL NEB   CLOUDY    68  65  90 SE8       30.16S
MCCOOK NEB     TSTM      68  66  93 W26G39    30.16R VSB 1/4
AKRON CO       MOCLDY    67  62  84 S15G25    30.18F
BURLINGTON CO  CLOUDY    64  61  90 E9        30.18F
LIMON CO       CLOUDY    63  57  81 S6        30.24F
$$

...UNOFFICIAL OBSERVATIONS...

CITY           SKY/WX    TMP DP  RH WIND       PRES   REMARKS
COLBY KS       LGT RAIN  66  66 100 W12       30.15F
GOVE KS          N/A     70  32  24 CALM        N/A
NORTON KS      MOCLDY    73  63  68 SE6       30.09
SHARON SPRINGS   N/A     65  63  94 CALM        N/A
WAKEENEY KS      N/A     76  63  64 MISG        N/A
KIT CARSON CO    N/A     62  57  85 MISG        N/A
YUMA CO          N/A     67  60  77 S5          N/A
$$


USA.gov is the U.S. government's official web portal to all federal, state and local government web resources and services.